IK5WWP Weather Reports


Display with metric or nautical units.
time (UTC)temp
F
wind
direction
speed
MPH
gust
MPH
rain 1hr
in
rain 24hr
in
rain mn
in
humidity
%
barometer
mb
20260831180948 79 57 0.0 2.0 0.00 0.00 0.00 72 1013.9
20260831180048 79 68 0.0 2.0 0.00 0.00 0.00 72 1013.9
20260831175148 79 54 1.0 2.0 0.00 0.00 0.00 71 1014.0
20260831173348 80 55 0.0 4.0 0.00 0.00 0.00 70 1013.7
20260831172448 80 76 1.0 4.0 0.00 0.00 0.00 68 1013.9
20260831171548 81 66 1.0 4.0 0.00 0.00 0.00 68 1014.0
20260831165748 82 84 1.0 2.0 0.00 0.00 0.00 66 1014.1
20260831164848 82 56 0.0 4.0 0.00 0.00 0.00 65 1014.0
20260831163948 82 74 0.0 4.0 0.00 0.00 0.00 64 1014.0
20260831163048 82 54 1.0 4.0 0.00 0.00 0.00 63 1013.9
20260831162148 83 68 1.0 4.0 0.00 0.00 0.00 61 1014.0
20260831161248 83 66 2.0 4.0 0.00 0.00 0.00 60 1013.9
20260831160348 83 43 2.0 4.0 0.00 0.00 0.00 59 1013.8
20260831155448 84 49 1.0 4.0 0.00 0.00 0.00 59 1013.8
20260831154548 84 68 1.0 4.0 0.00 0.00 0.00 56 1014.1
20260831153648 84 58 1.0 6.0 0.00 0.00 0.00 57 1014.3
20260831152748 84 47 1.0 9.0 0.00 0.00 0.00 57 1014.0
20260831151848 84 31 3.0 4.0 0.00 0.00 0.00 56 1014.2
20260831150948 85 46 1.0 4.0 0.00 0.00 0.00 56 1014.1
20260831150048 85 42 2.0 7.0 0.00 0.00 0.00 56 1014.1
20260831145148 85 39 2.0 6.0 0.00 0.00 0.00 55 1014.3
20260831143348 86 46 2.0 4.0 0.00 0.00 0.00 55 1014.1
20260831141548 86 57 2.0 7.0 0.00 0.00 0.00 54 1014.0
20260831140648 87 47 2.0 4.0 0.00 0.00 0.00 54 1014.0
20260831135748 87 47 1.0 4.0 0.00 0.00 0.00 55 1014.2
20260831134848 87 114 2.0 6.0 0.00 0.00 0.00 56 1014.1
20260831132148 90 86 1.0 6.0 0.00 0.00 0.00 53 1014.2
20260831131248 89 40 1.0 7.0 0.00 0.00 0.00 54 1013.9
20260831130348 90 58 0.0 6.0 0.00 0.00 0.00 53 1013.9
20260831125448 90 75 0.0 4.0 0.00 0.00 0.00 53 1014.1
20260831124549 90 37 1.0 7.0 0.00 0.00 0.00 52 1014.3
20260831123648 90 62 1.0 4.0 0.00 0.00 0.00 53 1014.3
20260831122748 90 56 0.0 4.0 0.00 0.00 0.00 53 1014.2
20260831121848 89 95 2.0 4.0 0.00 0.00 0.00 52 1014.3
20260831120948 89 55 2.0 8.0 0.00 0.00 0.00 55 1014.2
20260831120048 89 101 2.0 4.0 0.00 0.00 0.00 54 1014.3
20260831115148 89 87 2.0 6.0 0.00 0.00 0.00 55 1014.2
20260831114248 90 70 2.0 6.0 0.00 0.00 0.00 54 1014.5
20260831113348 88 28 1.0 4.0 0.00 0.00 0.00 53 1014.7
20260831112448 89 42 1.0 4.0 0.00 0.00 0.00 51 1014.3
20260831111548 88 36 1.0 4.0 0.00 0.00 0.00 54 1014.8
20260831110648 88 45 2.0 6.0 0.00 0.00 0.00 53 1014.5
20260831105748 87 46 1.0 6.0 0.00 0.00 0.00 55 1014.6
20260831103948 87 34 1.0 4.0 0.00 0.00 0.00 53 1014.6
20260831103048 87 27 0.0 4.0 0.00 0.00 0.00 53 1014.8
20260831102148 87 32 2.0 4.0 0.00 0.00 0.00 55 1014.8
20260831101248 85 28 3.0 4.0 0.00 0.00 0.00 56 1014.7
20260831100348 85 28 2.0 4.0 0.00 0.00 0.00 58 1014.7
20260831094548 86 22 1.0 4.0 0.00 0.00 0.00 62 1014.9
20260831093648 83 23 1.0 4.0 0.00 0.00 0.00 64 1015.0
20260831092748 84 22 0.0 2.0 0.00 0.00 0.00 63 1014.8
20260831091849 83 23 0.0 4.0 0.00 0.00 0.00 67 1015.0
20260831090948 82 21 1.0 4.0 0.00 0.00 0.00 67 1015.1
20260831090048 80 13 2.0 4.0 0.00 0.00 0.00 68 1015.1
20260831085148 80 23 1.0 4.0 0.00 0.00 0.00 69 1015.1
20260831084248 81 23 2.0 4.0 0.00 0.00 0.00 68 1015.1
20260831083348 80 23 2.0 4.0 0.00 0.00 0.00 68 1015.3
20260831081549 78 21 1.0 4.0 0.00 0.00 0.00 70 1015.3
20260831080648 77 12 2.0 4.0 0.00 0.00 0.00 72 1015.1
20260831075748 76 11 1.0 2.0 0.00 0.00 0.00 71 1014.9
20260831073949 74 1 0.0 2.0 0.00 0.00 0.00 73 1015.0
20260831073049 74 1 0.0 2.0 0.00 0.00 0.00 74 1014.9
20260831072149 74 20 0.0 2.0 0.00 0.00 0.00 74 1015.0
20260831071249 73 16 1.0 2.0 0.00 0.00 0.00 75 1015.0
20260831070349 72 14 1.0 2.0 0.00 0.00 0.00 77 1015.1
20260831065449 71 1 0.0 2.0 0.00 0.00 0.00 77 1015.1
20260831064549 71 1 0.0 2.0 0.00 0.00 0.00 79 1015.0
20260831063649 70 1 0.0 2.0 0.00 0.00 0.00 79 1014.9
20260831062749 69 1 0.0 2.0 0.00 0.00 0.00 79 1014.8
20260831061849 68 1 0.0 2.0 0.00 0.00 0.00 79 1014.9
20260831060949 68 0 0.0 0.0 0.00 0.00 0.00 80 1014.7
20260831060049 68 1 0.0 2.0 0.00 0.00 0.00 80 1014.8
20260831054249 67 1 0.0 2.0 0.00 0.00 0.00 81 1014.6
20260831052449 67 0 0.0 0.0 0.00 0.00 0.00 81 1014.8
20260831051549 66 0 0.0 0.0 0.00 0.00 0.00 81 1014.6
20260831045749 67 0 0.0 0.0 0.00 0.00 0.00 81 1014.3
20260831044849 67 0 0.0 0.0 0.00 0.00 0.00 81 1014.1
20260831043049 67 0 0.0 0.0 0.00 0.00 0.00 80 1014.4
20260831042149 67 1 0.0 2.0 0.00 0.00 0.00 79 1014.0
20260831040349 67 1 0.0 2.0 0.00 0.00 0.00 80 1014.1
20260831035449 67 1 0.0 2.0 0.00 0.00 0.00 80 1014.1
20260831034549 67 1 0.0 2.0 0.00 0.00 0.00 81 1014.3
20260831033649 67 1 0.0 2.0 0.00 0.00 0.00 82 1014.1
20260831032749 66 1 0.0 2.0 0.00 0.00 0.00 83 1014.2
20260831031849 67 0 0.0 0.0 0.00 0.00 0.00 85 1013.9
20260831030949 67 0 0.0 0.0 0.00 0.00 0.00 85 1014.2
20260831030049 67 0 0.0 0.0 0.00 0.00 0.00 84 1014.2
20260831025149 67 0 0.0 0.0 0.00 0.00 0.00 83 1014.1
20260831024249 67 1 0.0 2.0 0.00 0.00 0.00 80 1014.2
20260831023349 67 1 0.0 2.0 0.00 0.00 0.00 79 1014.1
20260831022449 67 1 0.0 2.0 0.00 0.00 0.00 79 1014.4
20260831021549 67 1 0.0 4.0 0.00 0.00 0.00 78 1014.2
20260831020649 67 1 1.0 2.0 0.00 0.00 0.00 78 1014.5
20260831015749 67 1 1.0 2.0 0.00 0.00 0.00 78 1014.3
20260831014849 67 1 1.0 2.0 0.00 0.00 0.00 78 1014.2
20260831013949 68 1 1.0 4.0 0.00 0.00 0.00 77 1014.5
20260831013049 68 1 2.0 2.0 0.00 0.00 0.00 77 1014.6
20260831012149 68 1 1.0 2.0 0.00 0.00 0.00 77 1014.5
20260831011249 68 12 1.0 2.0 0.00 0.00 0.00 77 1014.4
20260831010349 68 14 1.0 2.0 0.00 0.00 0.00 78 1014.4
20260831005449 67 354 1.0 2.0 0.00 0.00 0.00 78 1014.2
20260831004549 67 342 1.0 2.0 0.00 0.00 0.00 78 1014.4
20260831003650 68 339 1.0 2.0 0.00 0.00 0.00 78 1014.6
20260831001849 68 337 0.0 2.0 0.00 0.00 0.00 79 1014.0
20260831000950 67 0 0.0 0.0 0.00 0.00 0.00 80 1014.6
20260831000050 68 0 0.0 0.0 0.00 0.00 0.00 79 1014.4
20260830234250 68 337 0.0 2.0 0.00 0.00 0.00 79 1014.4
20260830233349 68 337 0.0 2.0 0.00 0.00 0.00 78 1014.2
20260830232449 69 337 0.0 2.0 0.00 0.00 0.00 78 1014.2
20260830231549 69 337 0.0 2.0 0.00 0.00 0.00 78 1014.2
20260830230650 69 337 1.0 2.0 0.00 0.00 0.00 79 1014.2
20260830225750 69 337 0.0 2.0 0.00 0.00 0.00 79 1014.1
20260830224849 69 1 0.0 2.0 0.00 0.00 0.00 75 1014.1
20260830223050 70 45 0.0 2.0 0.00 0.00 0.00 74 1014.1
20260830222150 70 0 0.0 0.0 0.00 0.00 0.00 74 1014.3
20260830221250 70 0 0.0 0.0 0.00 0.00 0.00 75 1014.3
20260830215432 70 51 0.0 2.0 0.00 0.00 0.00 74 1014.0
20260830214532 70 53 0.0 2.0 0.00 0.00 0.00 74 1014.1
20260830213632 71 28 0.0 2.0 0.00 0.00 0.00 74 1014.0
20260830212732 71 39 0.0 2.0 0.00 0.00 0.00 73 1013.9
20260830211832 71 45 0.0 2.0 0.00 0.00 0.00 74 1013.9
20260830210932 71 45 0.0 2.0 0.00 0.00 0.00 73 1013.9
20260830210032 72 45 0.0 2.0 0.00 0.00 0.00 72 1013.8
20260830205132 72 41 0.0 2.0 0.00 0.00 0.00 72 1013.6
20260830204232 72 41 1.0 4.0 0.00 0.00 0.00 73 1013.3
20260830203332 72 44 1.0 2.0 0.00 0.00 0.00 73 1013.3
20260830202432 72 9 0.0 2.0 0.00 0.00 0.00 72 1013.5
20260830201532 72 48 1.0 2.0 0.00 0.00 0.00 72 1013.4
20260830200632 73 24 1.0 2.0 0.00 0.00 0.00 72 1013.1
20260830195732 73 8 1.0 2.0 0.00 0.00 0.00 73 1013.1
20260830194832 73 1 0.0 2.0 0.00 0.00 0.00 73 1013.3
20260830193932 74 1 1.0 2.0 0.00 0.00 0.00 72 1013.5
20260830193032 74 1 0.0 2.0 0.00 0.00 0.00 72 1013.5
20260830192132 74 1 0.0 2.0 0.00 0.00 0.00 72 1013.2
20260830190332 74 23 0.0 2.0 0.00 0.00 0.00 71 1013.3
20260830185432 75 35 0.0 2.0 0.00 0.00 0.00 71 1013.2
20260830184532 75 45 0.0 2.0 0.00 0.00 0.00 71 1013.1
20260830183632 76 45 0.0 2.0 0.00 0.00 0.00 70 1013.1
20260830182732 76 26 0.0 2.0 0.00 0.00 0.00 70 1012.8